Simultaneous Nadir Overpasses (SNOs) Predictions

Prediction of SNOs between NOAA-19 and TERRA Satellite Orbit:

Table of predicted SNOs for the next 14.0 days since TLE Epoch: 12/10/2011
Index Date Time (NOAA-19) NOAA-19 Lat,Lon TERRA Lat,Lon Distance(km) Time Diff (sec)
1 12/12/2011 06:49:58 69.29, 76.15 69.19, 76.95 33.22 71
2 12/12/2011 07:40:46 -68.82,-115.92 -68.79,-115.93 2.50 2
3 12/12/2011 08:31:34 67.71, 52.75 67.74, 50.45 97.17 66
4 12/14/2011 10:44:33 -71.91,-166.64 -71.89,-157.70 308.94 41
5 12/14/2011 11:34:44 68.89, 5.50 68.89, 5.48 0.67 50
6 12/14/2011 12:25:38 -68.75, 172.95 -68.77, 172.97 3.11 34
7 12/14/2011 13:16:03 66.38, -16.91 66.42, -22.07 229.83 52
8 12/16/2011 15:29:00 -70.56, 124.54 -70.44, 128.89 162.30 60
9 12/16/2011 16:19:37 68.86, -65.70 68.84, -65.65 2.75 17
10 12/16/2011 17:10:30 -68.68, 101.82 -68.68, 101.77 1.90 65
11 12/16/2011 18:00:26 64.72, -86.40 64.72, -94.79 398.28 26
12 12/18/2011 19:23:44 72.97,-118.54 72.98,-105.45 425.35 20
13 12/18/2011 20:13:30 -69.34, 55.19 -69.22, 56.12 38.62 71
14 12/18/2011 21:04:29 68.79,-136.82 68.78,-136.81 1.42 15
15 12/18/2011 21:55:06 -67.76, 31.80 -67.84, 29.68 89.19 67
16 12/21/2011 00:08:05 71.34, 173.48 71.23,-179.66 244.83 50
17 12/21/2011 00:58:15 -68.91, -15.42 -68.92, -15.35 3.10 50
18 12/21/2011 01:49:21 68.73, 152.04 68.76, 152.08 3.32 48
19 12/21/2011 02:39:35 -66.47, -37.89 -66.52, -42.84 219.85 54
20 12/23/2011
